Regional Weather Roundup
Issued by NWS Mt. Holly, NJ

Home | Current Version | Previous Version | Text Only | Print | Product List | Glossary On
Versions: 1 2 3 4 5 6 7 8 9 10 11 12 13 14 15 16 17 18 19 20 21 22 23 24 25 26 27
000
ASUS41 KPHI 252113
RWRPHI

REGIONAL WEATHER ROUNDUP
NATIONAL WEATHER SERVICE MOUNT HOLLY NJ
400 PM EST SUN FEB 25 2018

NOTE:  "FAIR" INDICATES FEW OR NO CLOUDS BELOW 12,000 FEET WITH NO
SIGNIFICANT WEATHER AND/OR OBSTRUCTIONS TO VISIBILITY.

 * = STATION DOES NOT REPORT PRECIPITATION (E.G. RAIN, SNOW, ETC.)
        OR FOG.

NJZ015>026-252200-
SOUTHERN NEW JERSEY

CITY           SKY/WX    TMP DP  RH WIND       PRES   REMARKS
POMONA         NOT AVBL
WILDWOOD*      CLOUDY    49  48  97 VRB5      29.96F
MILLVILLE      CLOUDY    51  49  92 NW5       29.96R
WRIGHTSTOWN    CLOUDY    46  44  94 N3        29.94R
MOUNT HOLLY    CLOUDY    46  45  96 CALM      29.97R
TRENTON        CLOUDY    45  43  93 NE6       29.96R FOG

$$
NJZ001>014-252200-
NORTHERN NEW JERSEY

CITY           SKY/WX    TMP DP  RH WIND       PRES   REMARKS
SUSSEX         CLOUDY    44  41  89 N3        29.97R
ANDOVER*         N/A     43  41  93 CALM      29.97R
MORRISTOWN     CLOUDY    43  41  93 NE3       29.98R
NEWARK         CLOUDY    43  42  97 N8        29.99R
TETERBORO      CLOUDY    44  41  89 N5        29.98R FOG
CALDWELL       CLOUDY    43  42  97 E6        29.99R
SOMERVILLE     CLOUDY    44  42  93 VRB3      29.96R
ALLAIRE*       CLOUDY    43  43 100 NW10      29.98R FOG
TOMS RIVER*    CLOUDY    46  45  96 NW7       29.99R

$$
PAZ043-044-047-054-055-060>062-066>071-252200-
EASTERN PENNSYLVANIA

CITY           SKY/WX    TMP DP  RH WIND       PRES   REMARKS
PHILADELPHIA   CLOUDY    48  44  86 NE5       29.97R
NORTH PHILA    CLOUDY    48  44  86 NE6       29.97S
BLUE BELL*     CLOUDY    45  45 100 CALM      29.98S
DOYLESTOWN     CLOUDY    45  44  97 N3        29.96R
QUAKERTOWN*    CLOUDY    45  45 100 CALM      29.97S FOG
PERKASIE*      CLOUDY    45  45 100 CALM      29.99R
POTTSTOWN      CLOUDY    45  43  93 NW5       30.00R
LANCASTER      CLOUDY    48  45  89 SE3       29.95S
COATESVILLE    CLOUDY    48  46  93 N7        29.98R
READING        CLOUDY    47  47 100 CALM      29.94F
ALLENTOWN      CLOUDY    46  42  86 N3        29.97R
MOUNT POCONO   FOG       39  39 100 SE5       29.89F VSB 1/4
HAZLETON       CLOUDY    43  43 100 SE3       29.93F
LEHIGHTON      CLOUDY    45  43  93 CALM      29.96F
WILKES BARRE   FAIR      47  44  90 CALM      29.90F

$$
DEZALL-MDZ008-012-015-019-020-252200-
DELAWARE AND EASTERN MARYLAND

CITY           SKY/WX    TMP DP  RH WIND       PRES   REMARKS
WILMINGTON     CLOUDY    50  48  93 CALM      29.97R
DOVER          CLOUDY    53  51  94 NW6       29.96F
GEORGETOWN     PTSUNNY   59  54  83 VRB6G17   29.94F
EASTON         CLOUDY    50  48  93 CALM      29.99F
ABERDEEN       CLOUDY   N/A N/A N/A CALM      29.96F
PATUXENT       CLOUDY    57  55  93 W7        29.95
OCEAN CITY     FAIR      67  58  72 W14G23    29.95R
WALLOPS ISLAND PTSUNNY   69  60  73 W8        29.96R
CAMBRIDGE      MOSUNNY   52  50  93 N5        29.96F
SALISBURY      FAIR      62  56  80 W9        29.96R

$$
PAZ001-021-NYZ056-072-MDZ011-DCZ001-252200-
OTHER NEARBY LOCATIONS

CITY           SKY/WX    TMP DP  RH WIND       PRES   REMARKS
HARRISBURG     CLOUDY    47  44  90 CALM      29.96F
STATE COLLEGE  SUNNY     52  48  87 SW5       29.89R
WILLIAMSPORT   FAIR      48  45  89 E5        29.90R
BINGHAMTON     CLOUDY    42  41  96 S6        29.85F
NEW YORK CITY  CLOUDY    42  40  92 NE9       30.01R
BALTIMORE      CLOUDY    50  50 100 SW3       29.95F
WASHINGTON DC  CLOUDY    52  51  97 S6        29.96F

$$




USA.gov is the U.S. government's official web portal to all federal, state and local government web resources and services.